Location: Dürabuch
(48.2640°N, 11.2185°E)
Time: 02:11:07
(UTC+00:00)

Cosmos 676 Rocket - Pass Details

Date: 23 May 2024
Orbit: 752 x 781 km, 74.0° (Epoch: 19 June)

Event Time Altitude Azimuth Distance (km) Brightness Sun altitude
Exits shadow 00:42:52 33° 212° (SSW) 1,296 4.6 -18.1°
Maximum altitude 00:45:20 78° 293° (WNW) 804 4.0 -18.0°
Drops below altitude 10° 00:50:41 10° 21° (NNE) 2,348 7.8 -17.6°
Sets 00:53:06 0° 23° (NNE) 3,280 9.1 -17.5°
